Regional Weather Roundup
Issued by NWS Little Rock, AR

Home | Current Version | Previous Version | Text Only | Print | Product List | Glossary Off
Versions: 1 2 3 4 5 6 7 8 9 10 11 12 13 14 15 16 17 18 19 20 21 22 23 24 25 26 27 28

000
ASUS44 KLZK 291205
RWRLZK

WEATHER ROUNDUP FOR ARKANSAS
NATIONAL WEATHER SERVICE LITTLE ROCK AR
700 AM CDT MON AUG 29 2016

NOTE: "FAIR" INDICATES FEW OR NO CLOUDS BELOW 12,000 FEET WITH NO
SIGNIFICANT WEATHER AND/OR OBSTRUCTIONS TO VISIBILITY.

ARZ001-003-010-029-291300-
NORTHWEST ARKANSAS

CITY           SKY/WX    TMP DP  RH WIND       PRES   REMARKS
FAYETTEVILLE   PTCLDY    65  65 100 CALM      30.16R FOG
6HR MIN TEMP:  65; 6HR MAX TEMP:  69;

FORT SMITH     CLEAR     74  71  91 E3        30.10R
6HR MIN TEMP:  74; 6HR MAX TEMP:  76;

HARRISON       CLEAR     68  68 100 CALM      30.17R FOG
6HR MIN TEMP:  67; 6HR MAX TEMP:  72;

BENTONVILLE    CLEAR     72  66  83 CALM      30.16R
6HR MIN TEMP:  70; 6HR MAX TEMP:  75;

ROGERS         CLEAR     70  69  97 E3        30.17R
6HR MIN TEMP:  70; 6HR MAX TEMP:  75;

SILOAM SPGS    CLEAR     72  63  73 E5          N/A
6HR MIN TEMP:  70; 6HR MAX TEMP:  73;

HIGHFILL       CLEAR     70  69  97 E3        30.15R
6HR MIN TEMP:  69; 6HR MAX TEMP:  75;

SPRINGDALE     CLEAR     70  70 100 E3        30.18R
$$

ARZ004-005-016-291300-
NORTH CENTRAL ARKANSAS

CITY           SKY/WX    TMP DP  RH WIND       PRES   REMARKS
BATESVILLE     PTCLDY    72  70  94 W3        30.12R
6HR MIN TEMP:  72; 6HR MAX TEMP:  73;

FLIPPIN        PTCLDY    70  66  88 CALM      30.12R
6HR MIN TEMP:  70; 6HR MAX TEMP:  73;

MTN HOME       CLEAR     70  70 100 CALM      30.14R FOG
6HR MIN TEMP:  70; 6HR MAX TEMP:  74;

$$

ARZ040-041-291300-
WEST CENTRAL ARKANSAS

CITY           SKY/WX    TMP DP  RH WIND       PRES   REMARKS
MENA           CLEAR     70  68  94 CALM      30.13R
MOUNT IDA      CLEAR     70  69  97 CALM      30.08R FOG
6HR MIN TEMP:  70; 6HR MAX TEMP:  74;

$$

ARZ009-017-025-026-028-291300-
NORTHEAST ARKANSAS

CITY           SKY/WX    TMP DP  RH WIND       PRES   REMARKS
CORNING          N/A     73  73 100 CALM      30.12R
JONESBORO      PTCLDY    76  73  91 VRB3      30.09R
6HR MIN TEMP:  75; 6HR MAX TEMP:  78;

NEWPORT        MOCLDY    74  73  97 N7        30.10R
6HR MIN TEMP:  72; 6HR MAX TEMP:  75;

WALNUT RIDGE   CLEAR     73  72  94 N5        30.10S
6HR MIN TEMP:  73; 6HR MAX TEMP:  75;

BLYTHEVILLE    PTCLDY    74  73  97 NE5       30.10R
6HR MIN TEMP:  73; 6HR MAX TEMP:  77;

$$

ARZ022-023-033-042-044-291300-
CENTRAL ARKANSAS

CITY           SKY/WX    TMP DP  RH WIND       PRES   REMARKS
LITTLE ROCK    PTCLDY    77  73  87 N5        30.08R
6HR MIN TEMP:  77; 6HR MAX TEMP:  81;

N LITTLE ROCK    N/A     74  72  92 CALM      30.05R
6HR MIN TEMP:  74; 6HR MAX TEMP:  78;

JACKSONVILLE   CLEAR     75  75  99 CALM      30.08R
6HR MIN TEMP:  75; 6HR MAX TEMP:  78;

SEARCY         PTCLDY    75  74  96 VRB3      30.10R
6HR MIN TEMP:  74; 6HR MAX TEMP:  78;

HOT SPRINGS    CLEAR     74  72  93 CALM      30.08R FOG
6HR MIN TEMP:  73; 6HR MAX TEMP:  76;

RUSSELLVILLE   CLEAR     71  70  96 CALM      30.09R
6HR MIN TEMP:  71; 6HR MAX TEMP:  76;

$$

ARZ036-291300-
EAST ARKANSAS

CITY           SKY/WX    TMP DP  RH WIND       PRES   REMARKS
WEST MEMPHIS   PTCLDY    74  72  93 NE3       30.08R
6HR MIN TEMP:  73; 6HR MAX TEMP:  78;

$$

ARZ050-053-066-070-073-291300-
SOUTHWEST ARKANSAS

CITY           SKY/WX    TMP DP  RH WIND       PRES   REMARKS
ARKADELPHIA    FAIR      75  74  96 NE3       30.07R
6HR MIN TEMP:  75; 6HR MAX TEMP:  77;

TEXARKANA      PTCLDY    73  72  96 CALM      30.04S FOG
6HR MIN TEMP:  73; 6HR MAX TEMP:  75;

EL DORADO      CLOUDY    74  73  97 CALM      30.04R FOG
6HR MIN TEMP:  73; 6HR MAX TEMP:  76;

DE QUEEN       FOG       71  71 100 CALM      30.05R VSB 1/4
6HR MIN TEMP:  71; 6HR MAX TEMP:  74;

$$

ARZ056-057-069-291300-
SOUTHEAST ARKANSAS

CITY           SKY/WX    TMP DP  RH WIND       PRES   REMARKS
PINE BLUFF     CLOUDY    76  74  93 CALM      30.06R
6HR MIN TEMP:  75; 6HR MAX TEMP:  79;

STUTTGART      MOCLDY    75  72  88 NE3       30.07R
6HR MIN TEMP:  75; 6HR MAX TEMP:  79;

MONTICELLO     PTCLDY    76  72  87 CALM      30.06R
6HR MIN TEMP:  75; 6HR MAX TEMP:  80;


$$






USA.gov is the U.S. government's official web portal to all federal, state and local government web resources and services.